Home > Weather > Gross-Gerau > Past weeks

Flag for Germany Weather for the Past 2 Weeks in Gross-Gerau, Hesse, Germany

Now
36 °F

Clear.


Feels Like: 36 °F
Forecast: 40 / 65 °F
Wind: 1 mph from North

Location: Frankfurt-M-Flughafen Airport

Current Time: May 4, 2016 at 4:35:39 AM

Latest Report: May 4, 2016 at 3:50 AM


Visibility: 10 mi

Pressure: 30.33 "Hg

Humidity: 93%

Dew Point: 34 °F

Location of Gross-GerauLocation

Historic Weather in Gross-Gerau — Graph

°F

Gross-Gerau Temperature Yesterday

Maximum temperature yesterday: 59 °F (at 3:20 PM)
Minimum temperature yesterday: 43 °F (at 3:20 AM)
Average temperature yesterday: 52 °F

High & Low Weather Summary for the Past Weeks

 TemperatureHumidityPressure
High70 °F (Apr 21, 4:50 PM)100% (Apr 19, 4:50 AM)30.45 "Hg (Apr 19, 4:50 AM)
Low30 °F (Apr 24, 4:50 AM)22% (Apr 20, 5:50 PM)29.56 "Hg (Apr 26, 12:20 AM)
Average48 °F62%30.03 "Hg
* Reported Apr 19 3:20 AM — May 4 3:20 AM, Gross-Gerau, Weather by CustomWeather, © 2016

Note: Actual official high and low records may vary slightly from our data, if they occured in-between our weather recording intervals... More about our weather records

Advertising

Gross-Gerau Weather History for the Previous 24 Hours

Scroll right to see more
 ConditionsComfort  
Time TempWeatherWind HumidityBarometerVisibility
3:20 AM
Wed, May 4
36 °FClear.2 mph93%30.33 "Hg10 mi
2:50 AM37 °FClear.1 mph87%30.33 "Hg10 mi
2:20 AM37 °FPassing clouds.3 mph87%30.33 "HgN/A
1:50 AM39 °FClear.5 mph81%30.33 "Hg10 mi
12:50 AM41 °FClear.3 mph76%30.33 "Hg10 mi
12:20 AM41 °FPassing clouds.5 mph76%30.33 "HgN/A
11:50 PM
Tue, May 3
45 °FClear.5 mph66%30.30 "Hg10 mi
11:20 PM48 °FClear.5 mph58%30.30 "Hg10 mi
10:50 PM50 °FClear.7 mph54%30.30 "Hg10 mi
10:20 PM52 °FClear.8 mph50%30.27 "Hg10 mi
9:50 PM52 °FClear.7 mph50%30.27 "Hg10 mi
9:20 PM50 °FSunny.7 mph62%30.24 "Hg10 mi
8:50 PM50 °FSunny.6 mph62%30.24 "Hg10 mi
8:20 PM55 °FSunny.6 mph47%30.21 "Hg10 mi
7:50 PM57 °FScattered showers. Passing clouds.7 mph44%30.21 "HgN/A
7:20 PM55 °FScattered showers. Scattered clouds.10 mph47%30.21 "HgN/A
6:50 PM57 °FScattered showers. Scattered clouds.12 mph44%30.18 "HgN/A
6:20 PM57 °FScattered showers. Scattered clouds.10 mph44%30.18 "HgN/A
5:50 PM59 °FScattered showers. Partly sunny.13 mph42%30.18 "HgN/A
5:20 PM57 °FScattered showers. Broken clouds.13 mph48%30.18 "HgN/A
4:50 PM57 °FScattered showers. Broken clouds.16 mph48%30.18 "HgN/A
4:20 PM55 °FScattered showers. Broken clouds.16 mph47%30.18 "HgN/A
3:50 PM57 °FScattered showers. Partly sunny.20 mph44%30.18 "HgN/A
3:20 PM59 °FBroken clouds.14 mph45%30.15 "HgN/A
2:50 PM57 °FBroken clouds.10 mph51%30.15 "HgN/A
2:20 PM55 °FBroken clouds.7 mph59%30.15 "HgN/A
1:20 PM54 °FPartly sunny.12 mph67%30.15 "HgN/A
12:50 PM52 °FPartly sunny.12 mph72%30.15 "HgN/A
12:20 PM52 °FLight rain. Broken clouds.8 mph77%30.15 "HgN/A
11:50 AM52 °FLight rain. Partly sunny.13 mph82%30.15 "HgN/A
11:20 AM52 °FLight rain. Broken clouds.7 mph82%30.12 "HgN/A
10:50 AM52 °FLight rain. Broken clouds.10 mph82%30.12 "HgN/A
10:20 AM54 °FLight rain. Partly sunny.16 mph67%30.12 "HgN/A
9:50 AM57 °FPartly sunny.12 mph59%30.09 "HgN/A
9:20 AM57 °FPartly sunny.7 mph55%30.09 "HgN/A
8:50 AM55 °FPassing clouds.6 mph63%30.09 "HgN/A
8:20 AM54 °FSunny.7 mph67%30.09 "Hg10 mi
7:20 AM48 °FSunny.6 mph76%30.07 "Hg10 mi
6:50 AM45 °FClear.3 mph87%30.07 "Hg10 mi
6:20 AM45 °FClear.5 mph87%30.07 "Hg10 mi
5:50 AM45 °FClear.5 mph87%30.07 "Hg10 mi
5:20 AM45 °FClear.6 mph87%30.07 "Hg10 mi
4:20 AM48 °FClear.3 mph76%30.07 "Hg10 mi
Weather by CustomWeather, © 2016

See weather overviewHow to use our weather pages